RH
16 21 23 21 18 11 8 7 5 5 10 24 36 43 43 50 62 64 81 90 77 71 84 50 38 34 33 33 31 37 43 38 40 40 39 42 44 42 40 36 32 30 36
16 16 15 17 21 19 15 9 8 6 5 8 20 29 41 47 45 44 57 68 74 68 55 50 53 40 37 34 37 41 41 39 37 36 38 36 30 24 26 29 28 32 36
11 9 10 11 10 12 16 11 10 9 7 6 7 21 28 35 38 40 46 55 64 59 56 49 43 39 37 41 42 40 38 37 32 27 21 20 26 43 37 34 33 34 32
8 8 7 6 6 6 7 7 8 11 11 9 7 7 17 24 28 30 38 46 60 59 53 49 45 43 42 42 42 37 22 18 14 13 16 20 21 13 8 8 8 7 7
10 10 9 8 7 6 6 6 6 7 10 13 12 10 7 12 17 19 23 34 43 47 50 48 46 46 43 30 22 16 6 7 8 8 8 7 7 8 7 7 7 7 7
11 11 10 10 8 8 7 7 6 6 8 9 12 13 14 11 7 8 14 16 18 27 34 34 26 23 24 8 6 6 6 6 8 8 8 8 8 8 9 9 8 8 7
8 7 7 8 8 8 7 6 6 6 7 9 13 14 16 16 15 11 8 7 7 6 6 6 6 6 7 6 6 6 6 8 8 9 9 9 10 10 11 10 10 10 9
8 6 4 4 4 4 5 5 6 6 7 8 12 15 14 17 18 18 17 13 11 10 9 9 9 9 9 9 8 8 9 9 9 10 11 12 12 12 13 13 13 13 13
7 6 6 5 5 5 4 5 5 6 6 8 11 15 18 15 16 20 20 19 18 17 13 12 11 11 12 12 12 12 12 13 13 15 16 17 18 18 18 18 18 18 18
5 6 6 6 5 5 5 6 6 6 6 7 12 14 17 18 20 20 21 21 21 20 18 18 19 17 15 14 14 14 16 17 19 19 19 18 17 17 17 18 17 17 17
7 6 5 6 11 10 10 8 6 6 7 8 10 14 16 19 21 25 24 24 23 22 24 23 21 19 19 20 21 22 21 20 19 19 20 21 20 19 18 17 16 16 15
12 13 13 12 12 12 12 10 8 7 7 8 9 13 17 18 21 25 27 26 25 25 22 23 24 23 23 22 20 20 20 21 22 22 21 21 20 19 18 17 17 21 24
6 10 14 13 13 12 12 12 10 9 8 9 12 15 17 19 27 29 28 28 29 29 29 28 25 22 22 23 24 23 23 22 22 23 22 21 20 19 21 24 26 27 27
10 9 11 16 15 13 11 12 12 10 10 12 16 19 20 28 30 31 30 31 33 32 34 35 33 29 27 26 25 24 22 21 21 21 21 22 25 26 27 27 26 24 24
8 10 11 13 15 14 12 12 14 14 14 18 19 23 24 29 32 33 34 35 36 35 35 36 35 32 29 28 28 29 29 28 27 27 27 27 28 28 27 26 23 21 20
8 8 8 10 12 14 14 14 15 16 19 20 21 22 26 28 31 34 35 37 38 38 36 34 34 33 32 32 31 30 30 29 28 28 28 28 27 26 25 23 21 20 20
14 18 17 13 11 13 16 17 18 19 20 22 22 23 27 33 34 35 37 39 40 40 39 36 34 32 30 31 30 29 29 29 29 29 27 24 20 15 14 14 14 14 14
19 19 19 17 15 14 17 19 20 21 22 23 24 28 32 36 38 40 42 43 42 39 36 33 29 28 27 27 28 30 31 30 27 22 18 16 14 14 14 14 15 17 18
21 21 19 18 17 17 18 20 22 22 23 25 26 31 35 41 45 43 40 36 31 29 30 29 26 24 25 27 28 29 29 27 25 23 23 22 21 20 19 19 19 18 17
22 22 21 20 18 18 20 21 22 22 24 26 28 33 39 42 45 47 46 42 32 28 26 25 23 22 26 29 29 28 26 25 22 20 20 20 20 18 16 15 14 14 12
20 21 20 24 23 21 21 21 22 24 26 27 30 33 39 42 44 48 49 47 36 27 23 22 22 22 25 28 28 25 22 22 21 21 20 19 17 15 14 12 11 10 10
18 18 17 17 22 28 28 27 27 28 28 29 32 36 40 42 44 50 49 41 30 25 24 24 26 28 29 29 28 26 23 21 19 17 16 13 11 9 8 8 8 9 10
26 29 29 26 20 18 22 26 29 30 32 35 38 41 42 44 45 39 33 30 28 26 28 27 27 26 25 23 21 18 16 13 12 12 11 8 7 7 7 8 8 9 10
24 24 24 24 24 25 26 27 30 31 33 35 36 36 39 38 36 33 30 29 28 28 27 25 23 20 18 17 17 15 11 10 8 8 7 8 8 9 9 10 10 12 13
29 27 26 25 23 22 21 21 21 21 22 23 24 25 27 28 28 27 26 26 25 26 24 21 20 19 18 16 12 11 10 9 8 8 8 10 9 10 11 13 15 15 17
37 36 34 31 28 24 21 20 19 18 18 18 18 18 19 20 21 23 23 24 24 23 21 20 19 18 15 12 10 9 9 10 10 10 9 10 11 14 17 20 24 23 24
Wind_Speed
25 28 27 27 25 26 27 28 30 32 31 25 18 14 10 6 8 11 10 9 11 12 11 9 8 9 8 7 7 7 6 4 3 4 6 8 7 8 8 9 8 8 8
24 25 24 23 23 25 24 26 26 28 30 30 25 18 12 10 7 9 11 11 9 10 12 14 10 9 8 8 5 2 2 4 6 7 8 9 9 8 8 8 7 6 7
23 22 21 21 21 22 22 23 23 24 27 28 29 24 18 12 9 9 9 10 10 9 8 8 8 7 5 2 2 3 5 7 9 9 8 7 4 4 5 5 5 6 6
21 19 19 18 19 19 20 20 21 22 23 25 26 27 25 19 14 10 10 8 9 9 8 7 5 3 2 2 4 7 7 5 7 9 10 10 10 10 11 11 11 11 11
15 14 14 15 15 15 17 17 19 19 20 22 22 23 25 25 22 17 12 10 8 6 5 4 2 1 3 4 3 5 10 11 12 14 13 15 14 14 13 12 11 11 10
8 8 8 9 9 11 11 13 16 17 17 19 21 21 21 21 22 22 19 16 12 9 6 4 2 3 7 11 10 10 9 9 9 10 10 9 9 9 10 10 10 10 10
3 3 3 3 4 6 8 10 12 14 13 15 17 18 18 19 18 17 17 17 17 17 15 13 12 11 11 10 9 7 7 7 7 7 7 7 8 8 8 9 8 8 8
3 3 3 4 4 6 7 8 8 10 11 10 12 14 14 15 16 15 13 13 12 11 11 10 10 9 8 7 6 4 4 3 4 4 5 6 7 8 9 9 9 9 10
9 8 7 5 5 6 6 6 6 6 8 7 7 9 10 11 11 11 12 11 9 7 6 6 5 4 3 2 1 2 2 3 4 6 7 7 8 9 10 10 11 12 12
14 12 11 10 9 9 7 6 5 4 4 5 5 5 7 10 9 9 8 8 8 6 4 3 2 2 3 3 3 5 6 7 7 8 8 8 9 11 12 13 14 15 15
11 13 13 10 5 4 5 5 4 3 2 2 3 4 6 7 7 6 6 6 7 6 5 4 4 4 4 5 6 7 7 8 8 9 10 12 15 17 18 18 18 18 18
13 11 9 6 5 5 6 6 5 4 3 3 3 4 5 6 6 6 5 5 5 6 6 6 7 7 7 8 9 10 10 11 12 14 16 18 19 19 19 19 19 20 21
17 16 13 11 9 7 6 7 7 6 5 3 3 6 7 5 4 3 3 4 5 6 7 8 9 9 10 10 11 12 13 15 16 17 18 19 20 20 20 21 21 22 22
15 15 16 14 12 10 8 8 8 8 6 4 4 6 5 4 4 4 5 6 7 7 8 9 10 11 11 12 12 14 15 16 17 18 20 20 21 22 22 22 21 22 22
14 14 14 15 14 13 11 9 9 8 8 7 6 7 7 7 7 7 9 10 10 10 11 11 12 13 13 14 15 16 18 19 20 21 22 23 23 23 23 23 24 25 26
12 12 13 14 15 15 13 10 9 9 9 9 9 9 9 9 10 11 12 13 13 14 14 14 14 15 15 17 18 20 21 22 23 24 24 25 25 26 27 28 29 30 32
15 14 13 14 15 15 15 13 11 11 11 11 10 11 10 11 13 14 15 16 17 17 17 17 17 18 19 20 21 23 24 25 26 26 27 27 29 30 31 33 34 35 36
17 16 14 15 14 15 15 15 15 14 13 13 13 13 14 15 15 17 18 18 19 20 20 21 21 21 22 23 23 24 25 26 27 29 30 32 33 35 37 38 39 40 41
18 17 17 16 14 14 16 17 17 16 15 16 16 17 18 19 19 20 21 22 22 23 23 24 24 24 23 25 26 27 29 30 32 34 36 38 39 41 43 45 46 47 48
19 18 18 18 17 17 18 19 19 18 19 19 20 21 22 23 24 24 25 25 25 26 26 26 26 27 27 28 29 30 32 34 37 39 41 43 45 47 49 49 50 51 51
22 21 21 20 19 19 20 20 20 20 22 23 24 25 26 27 28 29 29 30 29 28 28 28 29 30 31 32 33 34 36 38 40 43 46 48 50 51 53 54 55 55 55
23 23 23 23 22 23 23 23 23 24 25 27 28 29 30 30 31 31 31 31 30 30 30 31 31 32 34 36 37 39 41 45 45 50 51 53 55 55 57 58 58 58 58
17 18 18 18 20 22 24 25 26 27 28 29 30 32 32 32 32 32 32 33 33 33 34 35 36 37 39 41 43 45 47 49 50 51 53 55 56 57 58 59 60 60 61
18 18 19 19 19 21 22 24 26 28 29 31 33 33 33 34 34 35 36 36 37 38 38 39 41 42 44 46 48 51 53 53 53 52 54 55 57 59 61 60 61 62 62
22 22 23 23 24 25 27 28 29 30 30 32 34 35 36 37 38 39 40 40 41 42 43 44 45 46 48 50 52 53 54 56 58 59 57 57 62 60 60 61 64 65 65
26 26 27 27 28 29 30 32 33 33 35 36 37 39 40 42 43 44 45 46 46 46 47 48 49 51 53 53 53 55 57 58 60 63 64 62 63 62 64 66 62 62 66
Wind_Direction
104 99 95 88 84 80 78 72 69 67 69 74 80 84 104 154 175 177 174 165 154 146 152 130 134 142 148 157 155 163 174 208 249 306 317 326 326 321 321 318 323 330 332
101 97 93 87 84 82 77 74 69 68 67 66 71 76 87 107 142 168 168 163 159 155 156 154 162 152 167 173 166 176 265 290 292 299 306 307 312 320 327 327 332 344 358
98 90 86 83 78 78 77 74 69 68 67 64 63 69 75 83 109 139 156 163 160 158 159 163 169 172 176 195 241 279 293 295 297 296 298 306 328 4 16 16 27 31 28
97 86 80 75 74 70 69 69 66 64 65 65 63 62 67 78 87 107 133 148 160 164 168 170 172 175 202 266 310 321 337 23 58 65 66 72 72 65 59 52 47 44 40
105 88 80 75 72 69 64 63 62 62 64 66 63 63 63 67 76 87 102 127 142 151 155 153 152 236 297 320 14 73 89 83 70 70 72 71 63 53 46 41 37 34 31
110 90 74 63 56 64 61 63 60 59 62 68 62 60 60 62 69 74 83 93 106 126 145 150 152 116 107 107 102 95 83 74 67 60 60 52 42 33 28 29 28 21 14
130 92 57 36 24 29 36 42 54 61 60 67 63 59 57 59 60 62 71 80 90 93 94 95 96 95 93 89 92 84 76 71 61 49 39 24 13 10 8 12 9 2 355
237 295 320 316 328 341 356 9 28 45 57 65 70 62 56 53 55 58 59 63 69 72 81 83 82 82 81 78 76 78 70 44 31 10 357 351 346 340 336 339 335 331 328
248 259 277 303 317 322 333 340 357 33 47 73 71 70 62 58 51 51 57 57 55 57 59 73 86 91 83 71 41 338 329 326 330 326 323 324 321 319 319 320 321 318 317
251 260 268 282 296 301 304 305 327 7 29 48 84 70 51 48 59 54 51 46 39 39 32 27 1 319 294 283 289 297 301 304 311 312 311 315 319 319 318 317 314 311 310
255 260 268 270 275 283 287 295 302 325 346 16 43 46 30 32 43 58 46 30 20 4 353 345 322 304 292 295 299 299 300 299 300 300 304 308 309 310 311 313 314 313 311
247 250 251 258 273 284 286 282 282 285 294 314 336 354 1 7 26 36 35 21 7 353 335 322 314 305 297 293 286 281 281 286 291 294 296 298 301 303 306 307 309 310 311
249 250 250 252 258 267 272 269 265 266 263 263 299 323 338 349 359 3 346 334 332 329 326 321 316 309 304 300 297 294 292 291 292 295 298 300 303 307 309 309 309 308 308
251 251 251 253 259 264 269 272 267 263 264 270 290 313 308 303 301 305 307 304 304 309 307 308 307 305 303 302 302 301 299 298 298 300 302 302 302 302 302 303 305 307 308
252 251 252 254 258 262 266 261 258 259 262 269 285 297 287 279 289 296 295 297 299 301 299 299 299 298 296 296 297 298 298 298 297 297 298 299 301 301 301 302 304 305 305
256 257 258 257 258 262 266 259 254 257 260 269 281 296 293 286 291 292 294 296 296 296 296 296 294 291 289 291 293 294 296 297 298 298 299 300 301 302 301 300 301 302 302
253 255 255 252 251 253 257 260 260 260 261 269 284 298 295 292 293 292 295 297 296 294 291 290 288 287 288 290 292 295 295 296 297 298 298 297 297 297 297 297 298 299 300
248 251 251 251 250 250 252 255 259 264 269 275 282 284 278 278 282 287 291 290 287 285 283 284 284 284 288 293 295 295 294 295 296 295 296 297 297 297 298 298 299 299 301
240 242 243 244 243 242 246 250 256 262 268 272 273 276 277 277 279 280 283 285 284 283 284 286 288 292 296 297 296 295 296 297 298 298 299 299 299 299 299 299 299 299 300
241 242 243 244 240 237 240 246 252 259 264 267 269 273 275 274 276 280 284 285 283 283 285 289 294 296 297 295 294 294 294 295 296 297 297 297 297 297 297 297 296 296 297
244 246 245 245 246 245 247 251 255 258 261 264 267 271 276 279 280 284 288 290 290 291 293 293 292 292 294 294 293 293 293 293 295 295 295 296 296 296 297 297 297 298 298
247 249 252 251 246 247 249 251 253 256 260 265 269 274 277 280 285 289 290 290 289 289 289 289 289 290 292 292 292 292 293 295 296 296 297 297 297 298 298 297 297 296 296
248 254 257 258 259 258 259 260 261 263 266 268 271 273 277 280 282 284 285 285 286 288 289 289 290 292 292 292 293 291 291 291 292 293 294 296 296 296 295 295 296 296 295
245 251 255 258 260 263 267 269 271 272 273 275 277 279 280 281 283 284 286 287 287 288 289 289 289 289 289 290 291 292 293 293 292 291 292 292 292 294 294 294 294 294 294
245 251 256 261 264 266 267 269 270 272 275 277 278 280 280 280 280 281 283 283 284 284 285 286 287 288 289 290 291 292 292 294 295 295 294 294 294 294 293 294 296 296 295
248 252 256 260 264 268 271 273 274 276 276 277 278 279 279 280 281 282 283 284 285 286 287 288 289 291 292 292 292 293 295 296 296 296 295 295 294 294 294 295 293 292 292